Weather History for KOGA - March, 2013

Change the Weather History Date:

Thursday, March 7, 2013

  Actual Average Record
Temperature  
Mean Temperature 39 °F -  
Max Temperature 56 °F 48 °F 79 °F (1972)
Min Temperature 22 °F 22 °F -2 °F (1971)
Degree Days  
Heating Degree Days 26    
Moisture  
Dew Point 26 °F    
Average Humidity 72    
Maximum Humidity 93    
Minimum Humidity 35    
Precipitation  
Precipitation 0.00 in - - ()
Sea Level Pressure  
Sea Level Pressure 29.96 in    
Wind  
Wind Speed 3 mph (ESE)    
Max Wind Speed 9 mph    
Max Gust Speed -    
Visibility 10 miles    
Events      
Averages and records for this station are not official NWS values.
T = Trace of Precipitation, MM = Missing Value Source: NWS Daily Summary

Daily Weather History Graph

Daily Weather History Graph

Search for Another Location

Airport or City:

Trip Planner

Search our weather history database for the weather conditions in past years. The results will help you decide how hot, cold, wet, or windy it might be!

Date:

Astronomy

Mar. 07, 2013 Rise Set
Actual Time 6:11 AM MST 5:45 PM MST
Civil Twilight 5:43 AM MST 6:12 PM MST
Nautical Twilight 5:12 AM MST 6:44 PM MST
Astronomical Twilight 4:40 AM MST 7:16 PM MST
Moon 3:14 AM MST (3/7) 1:33 PM MST (3/7)
Length of Visible Light 12h 28m
Length of Day
11h 33m
Waning Crescent, 19% of the Moon is Illuminated
Mar 7
Waning Crescent
Mar 11
New
Mar 19
First Quarter
Mar 27
Full
Apr 2
Last Quarter

Hourly Weather History & Observations

Time (MST) Temp. Windchill Dew Point Humidity Pressure Visibility Wind Dir Wind Speed Gust Speed Precip Events Conditions
12:15 AM 28.8 °F 25.0 °F 25.2 °F 86% 29.91 in 10.0 mi ESE 3.5 mph - N/A   Clear
12:35 AM 28.6 °F 24.8 °F 25.3 °F 88% 29.91 in 10.0 mi East 3.5 mph - N/A   Clear
12:55 AM 28.0 °F 22.8 °F 25.2 °F 89% 29.91 in 10.0 mi East 4.6 mph - N/A   Clear
1:15 AM 28.2 °F 22.0 °F 25.3 °F 89% 29.91 in 10.0 mi East 5.8 mph - N/A   Clear
1:35 AM 27.5 °F 23.6 °F 24.8 °F 90% 29.92 in 10.0 mi ENE 3.5 mph - N/A   Clear
1:55 AM 27.7 °F 22.4 °F 25.2 °F 90% 29.91 in 10.0 mi SE 4.6 mph - N/A   Clear
2:15 AM 26.6 °F 22.6 °F 24.1 °F 90% 29.91 in 10.0 mi East 3.5 mph - N/A   Clear
2:35 AM 25.5 °F - 23.2 °F 91% 29.90 in 10.0 mi Calm Calm - N/A   Clear
2:55 AM 25.5 °F 18.7 °F 23.2 °F 91% 29.89 in 10.0 mi East 5.8 mph - N/A   Clear
3:15 AM 25.0 °F - 22.6 °F 91% 29.90 in 10.0 mi Calm Calm - N/A   Clear
3:35 AM 24.3 °F 17.3 °F 21.9 °F 91% 29.92 in 10.0 mi North 5.8 mph - N/A   Clear
3:55 AM 23.9 °F 18.0 °F 21.9 °F 92% 29.91 in 10.0 mi NE 4.6 mph - N/A   Clear
4:15 AM 23.5 °F - 21.2 °F 91% 29.93 in 10.0 mi Calm Calm - N/A   Clear
4:35 AM 23.5 °F - 21.2 °F 91% 29.92 in 10.0 mi Calm Calm - N/A   Clear
4:55 AM 24.1 °F - 21.9 °F 91% 29.92 in 7.0 mi Calm Calm - N/A   Clear
5:15 AM 23.9 °F - 22.1 °F 93% 29.93 in 7.0 mi Calm Calm - N/A   Clear
5:35 AM 23.9 °F 19.5 °F 21.9 °F 92% 29.92 in 7.0 mi East 3.5 mph - N/A   Clear
5:55 AM 22.5 °F 17.8 °F 20.3 °F 91% 29.95 in 10.0 mi NNE 3.5 mph - N/A   Clear
6:15 AM 23.0 °F 17.0 °F 21.0 °F 92% 29.94 in 10.0 mi East 4.6 mph - N/A   Clear
6:35 AM 23.9 °F - 22.1 °F 93% 29.95 in 7.0 mi Calm Calm - N/A   Clear
6:55 AM 24.4 °F - 22.5 °F 92% 29.96 in 7.0 mi Calm Calm - N/A   Clear
7:15 AM 26.2 °F 20.7 °F 24.4 °F 93% 29.96 in 5.0 mi East 4.6 mph - N/A   Clear
7:35 AM 26.6 °F 22.6 °F 24.8 °F 93% 29.96 in 7.0 mi East 3.5 mph - N/A   Clear
7:55 AM 27.9 °F - 25.5 °F 91% 29.96 in 7.0 mi Calm Calm - N/A   Clear
8:15 AM 28.9 °F 25.2 °F 26.2 °F 90% 29.97 in 7.0 mi ESE 3.5 mph - N/A   Clear
8:35 AM 30.0 °F 26.5 °F 27.0 °F 88% 29.98 in 10.0 mi South 3.5 mph - N/A   Scattered Clouds
8:55 AM 32.2 °F - 28.8 °F 87% 29.98 in 10.0 mi Calm Calm - N/A   Mostly Cloudy
9:15 AM 33.1 °F - 28.0 °F 82% 29.98 in 10.0 mi Calm Calm - N/A   Scattered Clouds
9:35 AM 34.3 °F - 28.4 °F 79% 29.99 in 10.0 mi Calm Calm - N/A   Clear
9:55 AM 35.6 °F 32.8 °F 28.9 °F 77% 29.99 in 10.0 mi WNW 3.5 mph - N/A   Clear
10:15 AM 37.0 °F - 28.4 °F 71% 29.98 in 10.0 mi Calm Calm - N/A   Clear
10:35 AM 38.8 °F 36.5 °F 28.2 °F 66% 29.98 in 10.0 mi WSW 3.5 mph - N/A   Clear
10:55 AM 40.1 °F 38.0 °F 28.6 °F 63% 29.98 in 10.0 mi West 3.5 mph - N/A   Clear
11:15 AM 42.1 °F 40.2 °F 27.7 °F 57% 29.98 in 10.0 mi West 3.5 mph - N/A   Clear
11:35 AM 43.5 °F - 28.2 °F 55% 29.98 in 10.0 mi Calm Calm - N/A   Clear
11:55 AM 45.9 °F 44.6 °F 28.9 °F 52% 29.98 in 10.0 mi West 3.5 mph - N/A   Clear
12:15 PM 47.3 °F - 28.6 °F 48% 29.97 in 10.0 mi Calm Calm - N/A   Clear
12:35 PM 49.1 °F - 28.2 °F 44% 29.96 in 10.0 mi Calm Calm - N/A   Clear
12:55 PM 49.6 °F - 28.4 °F 44% 29.95 in 10.0 mi Calm Calm - N/A   Clear
1:15 PM 51.1 °F - 28.8 °F 42% 29.94 in 10.0 mi Calm Calm - N/A   Clear
1:35 PM 52.5 °F - 29.1 °F 41% 29.94 in 10.0 mi South 3.5 mph - N/A   Clear
1:55 PM 53.4 °F - 29.3 °F 40% 29.93 in 10.0 mi Calm Calm - N/A   Clear
2:15 PM 54.0 °F - 29.5 °F 39% 29.93 in 10.0 mi Calm Calm - N/A   Clear
2:35 PM 55.9 °F - 29.3 °F 36% 29.93 in 10.0 mi SSE 3.5 mph - N/A   Clear
2:55 PM 56.3 °F - 29.1 °F 35% 29.94 in 10.0 mi ESE 3.5 mph - N/A   Clear
3:15 PM 55.8 °F - 28.9 °F 36% 29.94 in 10.0 mi SE 6.9 mph - N/A   Clear
3:35 PM 55.4 °F - 29.1 °F 37% 29.94 in 10.0 mi SSE 5.8 mph - N/A   Clear
3:55 PM 54.5 °F - 29.3 °F 38% 29.94 in 10.0 mi SE 5.8 mph - N/A   Clear
4:15 PM 53.8 °F - 29.5 °F 39% 29.94 in 10.0 mi SE 6.9 mph - N/A   Clear
4:35 PM 52.9 °F - 29.3 °F 40% 29.95 in 10.0 mi SSE 6.9 mph - N/A   Clear
4:55 PM 51.8 °F - 29.5 °F 42% 29.96 in 10.0 mi SSE 5.8 mph - N/A   Clear
6:35 PM 43.9 °F 40.5 °F 29.3 °F 57% 29.99 in 10.0 mi SE 5.8 mph - N/A   Clear
6:55 PM 42.1 °F 38.4 °F 29.1 °F 60% 30.00 in 10.0 mi ESE 5.8 mph - N/A   Clear
7:15 PM 40.1 °F 38.0 °F 28.6 °F 63% 30.00 in 10.0 mi ESE 3.5 mph - N/A   Clear
7:35 PM 39.2 °F - 28.4 °F 65% 30.00 in 10.0 mi Calm Calm - N/A   Clear
7:55 PM 39.0 °F 35.7 °F 28.4 °F 66% 30.00 in 10.0 mi ENE 4.6 mph - N/A   Clear
8:15 PM 39.4 °F 35.2 °F 28.9 °F 66% 30.00 in 10.0 mi ESE 5.8 mph - N/A   Clear
8:35 PM 38.1 °F 32.3 °F 28.6 °F 69% 30.01 in 10.0 mi East 8.1 mph - N/A   Clear
8:55 PM 36.3 °F 29.5 °F 28.2 °F 72% 30.01 in 10.0 mi East 9.2 mph - N/A   Clear
9:15 PM 35.6 °F 29.9 °F 28.4 °F 75% 30.02 in 10.0 mi East 6.9 mph - N/A   Clear
9:35 PM 34.3 °F 27.7 °F 28.2 °F 78% 30.02 in 10.0 mi East 8.1 mph - N/A   Clear
9:55 PM 33.3 °F 27.1 °F 27.5 °F 79% 30.01 in 10.0 mi East 6.9 mph - N/A   Clear
10:15 PM 32.2 °F 26.7 °F 27.1 °F 82% 30.02 in 10.0 mi East 5.8 mph - N/A   Clear
10:35 PM 32.0 °F 28.7 °F 27.3 °F 83% 30.04 in 10.0 mi East 3.5 mph - N/A   Clear
10:55 PM 30.6 °F 27.1 °F 26.2 °F 84% 30.03 in 10.0 mi ENE 3.5 mph - N/A   Clear
11:15 PM 28.9 °F - 24.8 °F 84% 30.03 in 10.0 mi Calm Calm - N/A   Clear
11:35 PM 29.3 °F - 25.9 °F 87% 30.03 in 10.0 mi Calm Calm - N/A   Clear
11:55 PM 29.1 °F 24.1 °F 25.5 °F 86% 30.03 in 10.0 mi NNE 4.6 mph - N/A   Clear